Regional Weather Roundup
Issued by NWS

Home | Current Version | Previous Version | Graphics & Text | Print | Product List | Glossary Off
Versions: 1 2 3 4 5 6 7 8 9 10 11 12 13 14 15 16 17 18 19 20 21 22 23 24 25 26 27 28 29 30 31 32 33 34 35 36 37 38 39 40 41 42 43 44 45 46 47 48 49 50

000
ASUS43 KMKX 010100
RWRWI

WISCONSIN REGIONAL WEATHER ROUNDUP
NATIONAL WEATHER SERVICE MILWAUKEE/SULLIVAN WI
800 PM CDT THU JUL 31 2014

NOTE: "FAIR" INDICATES FEW OR NO CLOUDS BELOW 12,000 FEET WITH NO
SIGNIFICANT WEATHER AND/OR OBSTRUCTIONS TO VISIBILITY.

WIZ001-002-006>008-014>016-023>028-010200-
NORTHWEST WISCONSIN

CITY           SKY/WX    TMP DP  RH WIND       PRES   REMARKS
SUPERIOR ARPT  CLEAR     74  58  56 NW3       29.95S
ASHLAND        CLEAR     67  62  84 CALM      29.97R
HAYWARD        PTCLDY    71  64  78 CALM      29.99R
SIREN          PTCLDY    72  67  83 SW5       29.98S
RICE LAKE      MOCLDY    71  60  68 SW6       30.01S
LADYSMITH      LGT RAIN  69  63  81 CALM      30.01S
EAU CLAIRE     NOT AVBL
MENOMONIE      MOCLDY    78  57  47 W5        30.00R
NEW RICHMOND   CLEAR     75  58  57 W6        30.00S
OSCEOLA        CLEAR     76  60  58 W5        30.01S
$$

WIZ003>005-009-010-017-018-010200-
NORTH CENTRAL WISCONSIN

CITY           SKY/WX    TMP DP  RH WIND       PRES   REMARKS
WOODRUFF       CLEAR     72  48  42 CALM      30.00S
RHINELANDER    CLEAR     67  56  67 CALM      30.01R
EAGLE RIVER    CLEAR     68  51  55 CALM      30.00S
LAND O LAKES   PTCLDY    66  59  78 CALM      30.01S
PHILLIPS       PTCLDY    71  62  72 CALM      29.99S
TOMAHAWK       CLEAR     67  60  78 CALM      30.00S
MEDFORD        MOCLDY    68  61  78 W3        30.00S
MERRILL        CLEAR     71  64  77 W6        29.99S
$$

WIZ029-030-035-036-043>047-010200-
CENTRAL WISCONSIN

CITY           SKY/WX    TMP DP  RH WIND       PRES   REMARKS
WAUSAU         PTCLDY    71  61  70 W6        29.98R
MOSINEE        PTCLDY    70  61  73 VRB3      30.01R
MARSHFIELD     MOCLDY    71  61  70 W6        30.00R
STEVENS POINT  PTCLDY    64  60  85 S7        30.01S
WAUPACA        PTCLDY    73  58  58 W8        29.98S
WAUTOMA        NOT AVBL
WISC RAPIDS    PTCLDY    74  59  59 W3        30.01S
CAMP DOUGLAS   NOT AVBL
$$

WIZ011>013-019>022-031-037>040-048>050-010200-
NORTHEAST WISCONSIN

CITY           SKY/WX    TMP DP  RH WIND       PRES   REMARKS
ANTIGO         CLEAR     70  58  66 CALM      30.00R
STURGEON BAY   CLEAR     70  61  73 S7        29.96S
GREEN BAY      PTCLDY    71  64  78 W6        29.97R
MANITOWOC      NOT AVBL
APPLETON       MOCLDY    70  61  73 SW6       29.99R
CLINTONVILLE   PTCLDY    72  55  56 W7        29.97R
OSHKOSH        MOCLDY    66  62  87 SW3       29.99R
$$

WIZ032>034-041-042-053>061-010200-
SOUTHWEST WISCONSIN

CITY           SKY/WX    TMP DP  RH WIND       PRES   REMARKS
LA CROSSE      PTCLDY    76  60  57 SW3       29.99S
SPARTA         PTCLDY    74  57  55 CALM      30.01S
VIROQUA        FAIR      72  60  65 CALM      30.03S
BOSCOBEL       PTCLDY    76  62  62 CALM      30.01S
PRAIRIE DU CHI CLEAR     76  56  48 SW3       30.01S
PLATTEVILLE    FAIR      74  60  61 SW5       30.04S
$$

WIZ056-057-062-063-064-067-068-010200-
SOUTH CENTRAL WISCONSIN

CITY           SKY/WX    TMP DP  RH WIND       PRES   REMARKS
BARABOO/DELLS  CLEAR     73  55  54 CALM      30.01R
LONE ROCK      NOT AVBL
WATERTOWN      CLEAR     74  61  63 W3        30.00R
MADISON        MOCLDY    76  58  53 VRB3      30.01R
MIDDLETON      FAIR      74  58  58 W3        30.01S
MONROE         CLEAR     73  57  56 W8        30.03S
JANESVILLE     NOT AVBL
$$

WIZ051-052-058>065-066-070>072-010200-
SOUTHEAST WISCONSIN

CITY           SKY/WX    TMP DP  RH WIND       PRES   REMARKS
MILWAUKEE      PTCLDY    77  57  50 SW6       29.99S
WAUKESHA       CLEAR     72  54  53 W9        30.00S
MILWAUKEE/TIMM CLEAR     75  54  46 W7        30.00S
RACINE         CLEAR     74  59  59 SW6       30.01S
BURLINGTON     CLEAR     69  60  72 SW5       30.01S
KENOSHA        CLEAR     72  59  63 SW5       30.01S
FOND DU LAC    CLOUDY    70  59  68 NW8       30.00R
SHEBOYGAN      LGT RAIN  70  63  78 NW7       29.99R
WEST BEND      PTCLDY    75  54  46 W6        30.00R
JUNEAU         CLEAR     73  56  56 SW7       30.01R
$$

LSZ147-162-010200-
LAKE SUPERIOR

STATION/POSITION TIME  TEMP    WIND        PRES    WAVE
                       AIR SEA DIR/SP/G            HT/PER
                 (UTC) (F)     (DEG/KT/KT) (MB)    (FT/S)
W MID LAKE BUOY  2350   54 45  210/  8/  8 1014.0F   0
PORT WING        0040   74     260/  4/  7 1014.6R
SAXON HARBOR     0000             CALM     1014.2F
$$

LMZ867-665-643>646-010200-
LAKE MICHIGAN

STATION/POSITION TIME  TEMP    WIND        PRES    WAVE
                       AIR SEA DIR/SP/G            HT/PER
                 (UTC) (F)     (DEG/KT/KT) (MB)    (FT/S)
N MID LAKE BUOY  2350   59 55  220/ 14/ 14 1013.6R   2/ 4
NORTHPORT PIER   0000   71     190/  5/  8 1013.9S
SISTER BAY       2355   74     180/  9/ 11   N/A
ALGOMA LAKESHORE 2236          210/  7/  8   N/A
KEWAUNEE LAKESHO 0000   59     170/ 10/ 11 1013.8S
SHEBOYGAN LAKESH 0000   71     170/  7/  8 1014.7S
PORT WASHINGTON  0000   70     180/  3/  5 1015.6
ATWATER BUOY     0000   76     280/ 10     1016.3S
MILWAUKEE LAKESH 0000   80     280/ 10/ 15   N/A
S MID LAKE BUOY  2350   66 64  180/  8/  8 1016.0R   0
KENOSHA   LAKESH 0000   80     280/  9/ 13 1015.2S
$$

TC  - TEMPERATURE IN CELSIUS
VSB - VISIBILITY IN STATUTE MILES
WCI - WIND CHILL INDEX
HX  - HEAT INDEX



USA.gov is the U.S. government's official web portal to all federal, state and local government web resources and services.